Regional Weather Roundup
Issued by NWS

Home | Current Version | Previous Version | Text Only | Print | Product List | Glossary Off
Versions: 1 2 3 4 5 6 7 8 9 10 11 12 13 14 15 16 17 18 19 20 21 22 23 24 25 26 27 28 29 30 31 32 33 34 35 36 37 38 39 40 41 42 43 44 45 46 47 48 49 50

000
ASUS43 KDMX 212107
RWRIA

WEATHER ROUNDUP FOR IOWA
NATIONAL WEATHER SERVICE DES MOINES IA
400 PM CDT MON JUL 21 2014

NOTE: "FAIR" INDICATES FEW OR NO CLOUDS BELOW 12,000 FEET WITH NO
SIGNIFICANT WEATHER AND/OR OBSTRUCTIONS TO VISIBILITY.

* - THESE STATIONS ARE NOT NWS STATIONS...THUS NOT UNDER NWS
QUALITY CONTROL.  THEY ALSO DO NOT REPORT WEATHER SUCH
AS PRECIPITATION OR FOG.

IAZ001>003-012>014-020>022-031>034-043>046-212200-
   NORTHWEST IOWA

CITY           SKY/WX    TMP DP  RH WIND       PRES   REMARKS
CARROLL *      PTSUNNY   88  77  70 S13       29.87F HX 100
CHEROKEE *     PTSUNNY   86  77  74 S13       29.84F HX  97
DENISON *      MOSUNNY   90  77  66 S13G20    29.84S HX 102
LE MARS *      SUNNY     88  77  70 S10G18    29.83S HX 100
ORANGE CITY *  MOSUNNY   86  75  70 S6        29.86R HX  95
SHELDON *      CLOUDY    82  75  78 S10G17    29.84F HX  89
SIOUX CITY     PTSUNNY   91  78  65 S13       29.81S HX 106
SPENCER        CLOUDY    86  75  69 S14       29.86F HX  95
STORM LAKE *   PTSUNNY   86  79  79 S14       29.87F HX  99
$$

IAZ055>058-069>071-079>083-090>094-212200-
   SOUTHWEST IOWA

CITY           SKY/WX    TMP DP  RH WIND       PRES   REMARKS
ATLANTIC *     PTSUNNY   90  77  66 S17G24    29.87S HX 102
AUDUBON *      SUNNY     91  82  75 S16G22    29.89F HX 114
CLARINDA *     SUNNY     90  79  70 S15G24    29.90F HX 105
COUNCIL BLFS * SUNNY     93  79  62 S16G23    29.85F HX 110
CRESTON *      SUNNY     88  77  70 S22       29.90F HX 100
HARLAN  *      MOSUNNY   90  79  70 S14G22    29.90S HX 105
LAMONI         SUNNY     89  76  65 S15G24    29.94F HX 100
RED OAK *      SUNNY     91  79  66 S18       29.87S HX 107
SHENANDOAH *   SUNNY     91  79  66 S15G28    29.88F HX 107
$$

IAZ047>049-059>061-072>074-084-212200-
   CENTRAL IOWA

CITY           SKY/WX    TMP DP  RH WIND       PRES   REMARKS
AMES           MOSUNNY   88  76  67 S17G25    29.88F HX  99
ANKENY *       SUNNY     90  77  66 S14G25    29.88S HX 102
CHARITON *     SUNNY     88  75  66 S18G26    29.93F HX  97
DES MOINES     MOSUNNY   92  75  57 S18G25    29.89F HX 103
GRINNELL*      MOSUNNY   88  75  66 SE17G23   29.94F HX  97
KNOXVILLE *    SUNNY     90  75  62 S15G28    29.91F HX 100
MARSHALLTOWN   SUNNY     88  76  67 S22G30    29.90F HX  99
PELLA *        SUNNY     90  75  62 S14G21    29.94S HX 100
PERRY *        PTSUNNY   90  77  66 S13       29.88S HX 102
$$

IAZ004>006-015-016-023>025-035-036-212200-
   NORTH CENTRAL IOWA

CITY           SKY/WX    TMP DP  RH WIND       PRES   REMARKS
ALGONA *       CLOUDY    84  77  79 S12G21    29.88F HX  94
CLARION *      CLOUDY    86  75  70 S15G22    29.89S HX  95
ESTHERVILLE    CLOUDY    83  74  74 S18       29.88R HX  89
FORT DODGE *   CLOUDY    84  75  74 S7        29.89S HX  92
MASON CITY     MOSUNNY   85  74  69 S18       29.91R HX  92
FOREST CITY *  CLOUDY    84  73  70 S17G23    29.89S HX  91
IOWA FALLS *   PTSUNNY   86  75  70 SE15G23   29.90F HX  95
$$

IAZ007>011-017>019-026>030-037>042-050>054-066-212200-
   NORTHEAST IOWA

CITY           SKY/WX    TMP DP  RH WIND       PRES   REMARKS
CEDAR RAPIDS   SUNNY     85  72  65 S15G25    29.97F HX  91
CHARLES CITY * SUNNY     86  73  66 SE18      29.92F HX  93
DECORAH *      SUNNY     84  72  65 SE10G18   29.95F HX  89
DUBUQUE        SUNNY     83  69  62 S15G21    30.02S HX  86
MONTICELLO *   CLOUDY    84  72  65 S12G20    29.99F HX  89
OELWEIN *      SUNNY     86  73  66 S15G24    29.96F HX  93
WATERLOO       SUNNY     88  72  58 SE23G29   29.92S HX  94
$$

IAZ064-065-067-068-078-212200-
   EAST CENTRAL IOWA

CITY           SKY/WX    TMP DP  RH WIND       PRES   REMARKS
DAVENPORT      SUNNY     85  69  58 S12       30.02S HX  89
IOWA CITY      SUNNY     86  73  65 S15       29.99F HX  93
MT. PLEASANT * SUNNY     88  68  51 S14       30.00F HX  91
MUSCATINE *    MOSUNNY   88  70  55 S15       30.00S HX  92
QUAD CITIES    SUNNY     85  69  58 S12G21    30.01S HX  89
$$

IAZ062-063-075>077-085>089-095>099-212200-
   SOUTHEAST IOWA

CITY           SKY/WX    TMP DP  RH WIND       PRES   REMARKS
BURLINGTON     SUNNY     86  69  56 S14       30.02S HX  90
FAIRFIELD *    SUNNY     88  72  58 S13G20    29.98F HX  94
FORT MADISON * SUNNY     88  72  58 S9G17     30.02F HX  94
KEOKUK *       SUNNY     86  70  58 S15       30.01S HX  90
OSKALOOSA *      N/A     88  75  66 S16G22    29.96S HX  97
CENTERVILLE *  SUNNY     88  77  70 S12G18    29.98F HX 100
OTTUMWA        SUNNY     87  75  67 S17G23    29.94F HX  96
WASHINGTON *   SUNNY     88  73  62 S15       29.98F HX  96
$$

ABBREVIATIONS USED IN REMARKS
   TC - TEMPERATURES IN CELSIUS
  WCI - WIND CHILL INDEX
   HX - HEAT INDEX
  VSB - VISIBILITY
$$



USA.gov is the U.S. government's official web portal to all federal, state and local government web resources and services.